SCP
0 0 0 0 0 0 0 -0 0 0 0 0 0 0 0 0 0 0 0 0 0 0 0 0 0 0 0 0 0 0 0 0 0 0 0 0 0 0 0 0 0 0 0
0 0 0 0 0 0 0 0 0 0 0 0 0 0 0 0 0 0 0 0 0 0 0 0 0 0 0 0 0 0 0 0 0 0 0 0 0 0 0 0 0 0 0
0 0 0 0 0 0 0 0 0 0 0 0 0 0 0 0 0 0 0 0 0 0 0 0 0 0 0 0 0 0 0 0 0 0 0 0 0 0 0 0 0 0 0
0 0 0 0 0 0 0 0 0 0 0 0 0 0 0 0 0 0 0 0 0 0 0 0 0 0 0 0 0 0 0 0 0 0 0 0 0 0 0 0 0 0 0
0 0 0 0 0 0 0 0 0 0 0 0 0 0 0 0 0 0 0 0 0 0 0 0 0 0 0 0 0 0 0 0 0 0 0 0 0 0 0 0 0 0 0
0 0 0 0 0 0 0 0 0 0 0 0 0 0 0 0 0 0 0 0 0 0 0 0 0 0 0 0 0 0 0 0 0 0 0 0 0 0 0 0 0 0 0
0 0 0 0 0 0 0 0 0 0 0 0 0 0 0 0 0 0 0 0 0 0 0 0 0 0 0 0 0 0 0 0 0 0 0 0 0 0 0 0 0 0 0
0 0 0 0 0 0 0 0 0 0 0 0 0 0 0 0 0 0 0 0 0 0 0 0 0 0 0 0 0 0 0 0 0 0 0 0 0 0 0 0 0 0 0
0 0 0 0 0 0 0 0 0 0 0 0 0 0 0 0 0 0 0 0 0 0 0 0 0 0 0 0 0 0 0 0 0 0 0 0 0 0 0 0 0 0 0
0 0 0 0 0 0 0 0 0 0 0 0 0 0 0 0 0 0 0 0 0 0 0 0 0 0 0 0 0 0 0 0 0 0 0 0 0 0 0 0 0 0 0
0 0 0 0 0 0 0 0 0 0 0 0 0 0 0 0 0 0 0 0 0 0 0 0 0 0 0 0 0 0 0 0 0 0 0 0 0 0 0 0 0 0 0
0 0 0 0 0 0 0 0 0 0 0 0 0 0 0 0 0 0 0 0 0 0 0 0 0 0 0 0 0 0 0 0 0 0 0 0 0 0 0 0 0 0 0
0 0 0 0 0 0 0 0 0 0 0 0 0 0 0 0 -0 0 0 0 0 0 0 0 0 0 0 0 0 0 0 0 0 0 0 0 0 0 0 0 0 0 0
0 0 0 0 0 0 0 0 0 0 0 0 0 0 0 0 0 0 0 0 0 0 0 0 0 0 0 0 0 0 0 0 0 0 0 0 0 0 0 0 0 0 0
0 0 0 0 0 0 0 0 0 0 0 0 0 0 0 0 0 0 0 0 0 0 0 0 0 0 0 0 0 0 0 0 0 0 0 0 0 0 0 0 0 0 0
0 0 0 0 0 0 0 0 0 0 0 0 0 0 0 0 0 0 0 0 0 0 0 0 0 0 0 0 0 0 0 0 0 0 0 0 0 0 0 0 0 0 0
0 0 0 0 0 0 0 0 0 0 0 0 0 0 0 0 0 0 0 0 0 0 0 0 0 0 0 0 0 0 0 0 0 0 0 0 0 0 0 0 0 0 0
0 0 0 0 0 0 0 0 0 0 0 0 0 0 0 0 0 0 0 0 0 0 0 0 0 0 0 0 0 0 0 0 0 0 0 0 0 0 0 0 0 0 0
0 0 0 0 0 0 0 0 0 0 0 0 0 0 0 0 0 0 0 0 0 0 0 0 0 0 0 0 0 0 0 0 0 0 0 0 0 0 0 0 0 0 0
0 0 0 0 0 0 0 0 0 0 0 0 0 0 0 0 0 0 0 0 0 0 0 0 0 0 0 0 0 0 0 0 0 0 0 0 0 0 0 0 0 0 0
0 0 0 0 0 0 0 0 0 0 0 0 0 0 0 0 0 0 0 0 0 0 0 0 0 0 0 0 0 0 0 0 0 0 0 0 0 0 0 0 0 0 0
0 0 0 0 0 0 0 0 0 0 0 0 0 0 0 0 0 0 0 0 0 0 0 0 0 0 0 0 0 0 0 0 0 0 0 0 0 0 0 0 0 0 0
0 0 0 0 0 0 0 0 0 0 0 0 0 0 0 0 0 0 0 0 0 0 0 0 0 0 0 0 0 0 0 0 0 0 0 0 0 0 0 0 0 0 0
0 0 0 0 0 0 0 0 0 0 0 0 0 0 0 0 0 0 0 0 0 0 0 0 0 0 0 0 0 0 0 0 0 0 0 0 0 0 0 0 0 0 0
0 0 0 0 0 0 0 0 0 0 0 0 0 0 0 0 0 0 0 0 0 0 0 0 0 0 0 0 0 0 0 0 0 0 0 0 0 0 0 0 0 0 0
0 0 0 0 0 0 0 0 0 0 0 0 0 0 0 0 0 0 0 0 0 0 0 0 0 0 0 0 0 0 0 0 0 0 0 0 0 0 0 0 0 0 0
Wind_Speed_500mb
56 63 66 56 32 17 12 18 19 28 28 31 29 22 17 12 10 11 13 15 17 20 21 24 26 30 33 37 40 42 44 48 61 68 64 66 66 67 65 62 61 63 65
69 58 44 23 15 27 15 21 27 33 28 23 17 14 12 10 8 11 15 17 18 22 24 27 32 37 39 43 47 49 50 49 58 72 72 69 71 71 70 70 66 62 65
55 40 34 35 33 24 28 24 28 24 22 22 17 11 8 10 12 15 17 21 24 29 33 37 41 43 46 47 47 49 51 52 54 66 74 70 71 69 71 67 69 67 64
45 46 42 37 35 35 28 30 28 23 16 14 8 8 9 12 15 17 21 25 29 33 37 40 44 45 46 46 45 45 48 51 53 58 63 67 65 62 66 72 77 78 80
47 40 35 33 33 33 27 21 17 16 11 8 8 10 13 17 22 26 29 32 33 34 35 36 39 42 45 45 45 43 46 50 53 56 60 60 62 68 69 72 82 85 86
43 40 37 34 34 25 24 20 17 12 10 10 12 15 18 22 25 28 31 34 35 35 35 35 37 40 39 41 43 43 47 51 53 54 55 61 63 64 70 73 78 81 75
43 40 38 35 32 28 22 17 12 10 9 10 13 17 21 25 29 31 32 35 37 38 40 41 42 44 47 47 48 47 46 49 52 51 55 53 60 59 65 68 69 73 77
40 37 33 30 27 22 16 10 9 8 6 10 15 19 23 28 34 37 38 37 38 39 41 41 40 41 45 49 51 50 49 51 52 53 55 58 60 62 64 68 72 77 80
37 34 32 26 19 14 10 9 8 5 8 13 18 23 28 31 33 35 35 36 36 36 37 39 39 40 43 48 52 54 54 51 55 58 60 61 59 58 56 59 64 63 72
34 30 24 18 14 11 10 6 3 8 13 16 19 21 23 26 28 30 32 33 31 29 31 35 39 41 44 47 50 50 53 56 59 60 59 59 60 60 57 55 58 57 62
25 21 16 14 12 10 6 1 5 8 9 10 13 16 19 21 24 28 31 35 36 37 37 39 43 47 49 50 51 52 53 58 60 59 60 60 60 59 59 59 59 59 63
21 17 15 15 12 7 2 1 1 1 3 6 11 15 18 22 27 32 38 37 40 43 45 46 45 46 49 51 54 56 58 59 58 55 54 54 51 53 59 61 58 58 60
21 20 18 13 8 8 9 9 8 4 3 6 11 17 23 27 32 38 40 42 44 45 47 49 49 51 52 52 53 53 53 52 53 54 50 44 51 64 63 60 57 57 59
22 19 16 16 17 18 17 13 9 7 9 11 15 21 26 32 37 40 41 42 44 45 47 50 52 52 50 49 48 47 48 49 52 48 50 62 64 64 63 59 54 58 65
23 27 27 26 23 20 16 14 13 15 17 21 24 26 29 34 36 40 43 46 47 47 54 55 55 54 51 48 47 48 48 50 49 52 58 61 63 65 65 61 54 52 58
31 31 29 26 24 21 20 21 22 24 26 29 30 30 33 38 41 41 44 47 51 56 55 54 53 52 51 52 53 53 53 54 52 57 56 58 62 65 67 64 53 49 57
31 33 33 31 29 28 29 29 30 32 31 31 34 36 39 41 42 44 46 51 55 54 53 52 51 50 51 51 52 52 54 55 58 57 57 58 60 63 63 61 62 58 53
34 38 40 39 38 37 36 37 37 35 32 32 36 38 40 39 40 45 48 51 49 49 49 50 50 50 50 51 53 55 56 56 55 55 57 57 59 61 62 61 62 55 58
37 39 43 47 47 47 46 44 43 41 37 37 37 37 37 36 40 43 46 46 47 48 48 48 49 50 51 53 54 55 56 57 60 60 61 60 61 61 62 63 64 65 64
40 42 45 49 53 54 52 50 47 43 40 39 37 34 34 35 39 43 46 48 49 48 49 49 49 50 53 55 57 60 62 63 63 64 65 65 65 63 65 68 68 67 65
46 49 51 53 55 56 53 49 45 41 39 36 33 32 35 38 41 44 47 47 48 49 50 52 54 55 57 58 59 60 61 63 65 68 69 69 69 70 69 69 68 65 64
50 54 56 56 55 52 49 46 41 38 36 33 32 32 36 40 43 45 45 45 46 48 50 52 53 54 54 54 55 59 62 65 66 67 70 72 73 73 72 68 65 63 63
55 57 57 56 53 49 45 41 38 35 31 29 30 35 37 40 41 42 43 45 46 47 48 50 51 49 47 49 52 55 60 62 63 65 69 72 74 74 71 67 63 63 63
50 52 51 49 46 44 41 38 34 32 29 31 34 33 36 38 39 41 43 46 47 46 45 45 43 44 45 46 48 51 57 62 66 70 70 74 77 70 65 64 62 60 62
40 42 43 42 40 38 35 33 30 28 29 30 29 32 34 36 39 41 43 43 43 42 41 41 42 44 44 47 50 52 55 56 60 62 66 70 72 69 67 65 61 63 65
35 36 35 33 32 31 29 28 27 27 26 25 28 31 34 37 39 39 38 38 39 39 40 41 42 45 48 50 52 52 51 54 60 62 64 67 67 70 68 61 60 61 62
Wind_Direction_500mb
181 175 170 161 174 187 162 206 230 243 249 254 250 232 235 235 244 261 268 272 277 288 299 300 299 301 301 300 300 301 301 301 298 301 305 308 308 310 311 308 306 303 301
170 167 170 182 188 176 152 178 211 225 219 214 212 209 213 226 260 285 291 293 295 294 297 299 302 304 303 304 304 304 304 304 304 304 305 308 307 310 309 307 304 302 299
171 186 188 167 171 172 186 166 177 184 189 190 191 219 253 285 288 287 290 292 295 300 302 303 303 303 303 302 303 303 302 301 300 298 300 304 305 309 309 308 306 304 299
166 158 158 157 165 163 162 167 171 174 191 200 198 232 256 270 281 287 295 300 305 306 308 310 310 309 307 305 305 304 303 302 301 299 302 305 310 314 312 315 313 315 313
151 152 155 154 156 150 156 158 170 173 189 226 243 264 279 287 292 303 308 309 310 311 310 309 307 305 305 306 306 308 309 308 307 308 308 310 314 318 316 314 312 311 310
161 164 168 167 164 165 170 167 173 192 213 246 273 283 296 302 308 312 313 312 310 309 310 309 308 307 308 308 310 314 314 312 309 309 309 310 311 310 309 309 309 312 316
154 146 150 157 158 156 172 173 188 216 239 274 290 301 307 311 312 315 318 319 317 316 316 316 314 313 311 309 309 311 311 308 306 308 305 305 304 308 306 307 308 308 304
152 153 153 158 160 164 168 174 205 234 273 298 311 320 324 326 324 323 322 320 318 318 315 312 310 310 311 310 310 308 306 307 308 309 307 310 312 312 310 307 306 307 306
153 155 162 154 152 160 173 197 218 273 323 331 332 334 332 331 328 325 322 318 317 318 316 314 314 313 311 310 311 311 308 308 308 308 308 309 310 308 307 303 302 304 303
159 158 154 155 164 176 194 208 293 334 346 345 342 335 332 328 324 321 321 319 320 317 314 314 316 317 316 318 320 319 317 315 310 306 305 305 307 307 305 304 307 306 304
164 162 164 171 180 193 204 284 15 17 0 347 338 334 329 327 324 329 331 329 332 330 329 326 327 326 323 317 314 314 312 311 312 310 309 308 308 305 306 307 306 305 303
179 184 188 196 198 197 138 76 66 302 317 348 341 334 334 339 340 340 337 335 332 333 329 324 320 315 314 315 316 313 311 313 314 313 313 313 312 311 311 308 305 300 296
199 202 207 211 203 200 209 209 214 236 302 331 327 334 335 336 338 337 334 330 328 326 320 319 318 317 317 317 314 313 315 317 318 318 318 316 315 318 318 315 313 309 307
217 219 217 215 220 216 215 220 234 270 293 309 321 327 329 330 332 331 328 321 316 312 317 322 323 323 322 323 322 322 323 323 323 320 316 319 320 322 321 322 312 311 310
235 232 229 224 217 219 231 245 263 283 299 307 312 317 320 322 323 320 314 313 321 324 325 324 325 325 326 325 325 326 326 325 324 319 321 322 323 323 323 323 319 311 307
242 237 232 230 231 236 250 262 275 285 292 295 304 314 315 311 308 310 319 323 325 323 323 323 322 323 324 324 324 324 325 325 324 323 323 323 323 323 323 323 319 315 313
247 241 240 242 246 251 258 265 274 280 287 299 305 301 298 301 309 315 319 320 320 319 319 319 321 322 321 321 321 323 324 325 323 321 321 321 321 320 321 320 319 318 308
248 244 246 249 253 258 264 267 270 275 285 290 291 290 295 302 306 312 314 315 315 316 318 319 320 320 322 323 323 321 321 322 322 322 321 320 320 320 320 317 319 315 312
256 254 252 252 256 260 264 268 271 274 275 276 278 282 289 297 305 310 312 314 316 318 318 318 319 320 322 322 322 321 322 323 323 322 322 320 320 319 318 317 316 318 317
257 257 259 261 262 263 264 265 267 269 270 272 276 282 288 298 306 311 315 318 319 319 319 319 321 322 323 324 324 323 322 322 321 321 321 319 319 318 316 317 318 317 317
265 260 260 262 262 262 262 263 265 266 268 272 276 283 293 304 309 311 313 315 316 317 318 320 322 324 324 322 321 321 321 322 322 322 321 320 319 317 316 316 317 317 317
263 260 260 261 260 258 259 260 263 264 266 268 275 285 295 302 304 307 309 310 312 315 317 318 320 320 320 321 323 324 325 326 325 324 321 320 318 316 314 314 316 316 317
259 257 257 256 254 254 255 257 257 256 255 262 275 287 296 299 303 306 308 310 313 316 317 317 317 319 321 323 325 326 325 327 327 326 325 322 318 315 313 311 312 316 315
257 256 254 252 252 253 252 250 245 243 246 264 277 286 292 298 303 306 309 312 315 317 318 318 320 323 325 327 328 330 329 328 325 322 319 319 317 315 313 313 312 313 314
258 253 249 246 244 242 240 237 237 243 264 275 285 291 297 302 306 310 312 314 317 319 321 322 323 322 321 322 324 323 322 325 324 322 319 318 319 321 317 314 311 308 304
250 241 235 233 231 230 229 229 239 259 272 283 290 297 304 309 311 314 317 319 320 322 323 323 322 321 318 322 322 316 317 328 328 324 321 321 320 318 313 305 305 308 307
Wind_Speed_850mb
56 63 66 56 32 17 12 18 19 28 28 31 29 22 17 12 10 11 13 15 17 20 21 24 26 30 33 37 40 42 44 48 61 68 64 66 66 67 65 62 61 63 65
69 58 44 23 15 27 15 21 27 33 28 23 17 14 12 10 8 11 15 17 18 22 24 27 32 37 39 43 47 49 50 49 58 72 72 69 71 71 70 70 66 62 65
55 40 34 35 33 24 28 24 28 24 22 22 17 11 8 10 12 15 17 21 24 29 33 37 41 43 46 47 47 49 51 52 54 66 74 70 71 69 71 67 69 67 64
45 46 42 37 35 35 28 30 28 23 16 14 8 8 9 12 15 17 21 25 29 33 37 40 44 45 46 46 45 45 48 51 53 58 63 67 65 62 66 72 77 78 80
47 40 35 33 33 33 27 21 17 16 11 8 8 10 13 17 22 26 29 32 33 34 35 36 39 42 45 45 45 43 46 50 53 56 60 60 62 68 69 72 82 85 86
43 40 37 34 34 25 24 20 17 12 10 10 12 15 18 22 25 28 31 34 35 35 35 35 37 40 39 41 43 43 47 51 53 54 55 61 63 64 70 73 78 81 75
43 40 38 35 32 28 22 17 12 10 9 10 13 17 21 25 29 31 32 35 37 38 40 41 42 44 47 47 48 47 46 49 52 51 55 53 60 59 65 68 69 73 77
40 37 33 30 27 22 16 10 9 8 6 10 15 19 23 28 34 37 38 37 38 39 41 41 40 41 45 49 51 50 49 51 52 53 55 58 60 62 64 68 72 77 80
37 34 32 26 19 14 10 9 8 5 8 13 18 23 28 31 33 35 35 36 36 36 37 39 39 40 43 48 52 54 54 51 55 58 60 61 59 58 56 59 64 63 72
34 30 24 18 14 11 10 6 3 8 13 16 19 21 23 26 28 30 32 33 31 29 31 35 39 41 44 47 50 50 53 56 59 60 59 59 60 60 57 55 58 57 62
25 21 16 14 12 10 6 1 5 8 9 10 13 16 19 21 24 28 31 35 36 37 37 39 43 47 49 50 51 52 53 58 60 59 60 60 60 59 59 59 59 59 63
21 17 15 15 12 7 2 1 1 1 3 6 11 15 18 22 27 32 38 37 40 43 45 46 45 46 49 51 54 56 58 59 58 55 54 54 51 53 59 61 58 58 60
21 20 18 13 8 8 9 9 8 4 3 6 11 17 23 27 32 38 40 42 44 45 47 49 49 51 52 52 53 53 53 52 53 54 50 44 51 64 63 60 57 57 59
22 19 16 16 17 18 17 13 9 7 9 11 15 21 26 32 37 40 41 42 44 45 47 50 52 52 50 49 48 47 48 49 52 48 50 62 64 64 63 59 54 58 65
23 27 27 26 23 20 16 14 13 15 17 21 24 26 29 34 36 40 43 46 47 47 54 55 55 54 51 48 47 48 48 50 49 52 58 61 63 65 65 61 54 52 58
31 31 29 26 24 21 20 21 22 24 26 29 30 30 33 38 41 41 44 47 51 56 55 54 53 52 51 52 53 53 53 54 52 57 56 58 62 65 67 64 53 49 57
31 33 33 31 29 28 29 29 30 32 31 31 34 36 39 41 42 44 46 51 55 54 53 52 51 50 51 51 52 52 54 55 58 57 57 58 60 63 63 61 62 58 53
34 38 40 39 38 37 36 37 37 35 32 32 36 38 40 39 40 45 48 51 49 49 49 50 50 50 50 51 53 55 56 56 55 55 57 57 59 61 62 61 62 55 58
37 39 43 47 47 47 46 44 43 41 37 37 37 37 37 36 40 43 46 46 47 48 48 48 49 50 51 53 54 55 56 57 60 60 61 60 61 61 62 63 64 65 64
40 42 45 49 53 54 52 50 47 43 40 39 37 34 34 35 39 43 46 48 49 48 49 49 49 50 53 55 57 60 62 63 63 64 65 65 65 63 65 68 68 67 65
46 49 51 53 55 56 53 49 45 41 39 36 33 32 35 38 41 44 47 47 48 49 50 52 54 55 57 58 59 60 61 63 65 68 69 69 69 70 69 69 68 65 64
50 54 56 56 55 52 49 46 41 38 36 33 32 32 36 40 43 45 45 45 46 48 50 52 53 54 54 54 55 59 62 65 66 67 70 72 73 73 72 68 65 63 63
55 57 57 56 53 49 45 41 38 35 31 29 30 35 37 40 41 42 43 45 46 47 48 50 51 49 47 49 52 55 60 62 63 65 69 72 74 74 71 67 63 63 63
50 52 51 49 46 44 41 38 34 32 29 31 34 33 36 38 39 41 43 46 47 46 45 45 43 44 45 46 48 51 57 62 66 70 70 74 77 70 65 64 62 60 62
40 42 43 42 40 38 35 33 30 28 29 30 29 32 34 36 39 41 43 43 43 42 41 41 42 44 44 47 50 52 55 56 60 62 66 70 72 69 67 65 61 63 65
35 36 35 33 32 31 29 28 27 27 26 25 28 31 34 37 39 39 38 38 39 39 40 41 42 45 48 50 52 52 51 54 60 62 64 67 67 70 68 61 60 61 62
Wind_Direction_850mb
181 175 170 161 174 187 162 206 230 243 249 254 250 232 235 235 244 261 268 272 277 288 299 300 299 301 301 300 300 301 301 301 298 301 305 308 308 310 311 308 306 303 301
170 167 170 182 188 176 152 178 211 225 219 214 212 209 213 226 260 285 291 293 295 294 297 299 302 304 303 304 304 304 304 304 304 304 305 308 307 310 309 307 304 302 299
171 186 188 167 171 172 186 166 177 184 189 190 191 219 253 285 288 287 290 292 295 300 302 303 303 303 303 302 303 303 302 301 300 298 300 304 305 309 309 308 306 304 299
166 158 158 157 165 163 162 167 171 174 191 200 198 232 256 270 281 287 295 300 305 306 308 310 310 309 307 305 305 304 303 302 301 299 302 305 310 314 312 315 313 315 313
151 152 155 154 156 150 156 158 170 173 189 226 243 264 279 287 292 303 308 309 310 311 310 309 307 305 305 306 306 308 309 308 307 308 308 310 314 318 316 314 312 311 310
161 164 168 167 164 165 170 167 173 192 213 246 273 283 296 302 308 312 313 312 310 309 310 309 308 307 308 308 310 314 314 312 309 309 309 310 311 310 309 309 309 312 316
154 146 150 157 158 156 172 173 188 216 239 274 290 301 307 311 312 315 318 319 317 316 316 316 314 313 311 309 309 311 311 308 306 308 305 305 304 308 306 307 308 308 304
152 153 153 158 160 164 168 174 205 234 273 298 311 320 324 326 324 323 322 320 318 318 315 312 310 310 311 310 310 308 306 307 308 309 307 310 312 312 310 307 306 307 306
153 155 162 154 152 160 173 197 218 273 323 331 332 334 332 331 328 325 322 318 317 318 316 314 314 313 311 310 311 311 308 308 308 308 308 309 310 308 307 303 302 304 303
159 158 154 155 164 176 194 208 293 334 346 345 342 335 332 328 324 321 321 319 320 317 314 314 316 317 316 318 320 319 317 315 310 306 305 305 307 307 305 304 307 306 304
164 162 164 171 180 193 204 284 15 17 0 347 338 334 329 327 324 329 331 329 332 330 329 326 327 326 323 317 314 314 312 311 312 310 309 308 308 305 306 307 306 305 303
179 184 188 196 198 197 138 76 66 302 317 348 341 334 334 339 340 340 337 335 332 333 329 324 320 315 314 315 316 313 311 313 314 313 313 313 312 311 311 308 305 300 296
199 202 207 211 203 200 209 209 214 236 302 331 327 334 335 336 338 337 334 330 328 326 320 319 318 317 317 317 314 313 315 317 318 318 318 316 315 318 318 315 313 309 307
217 219 217 215 220 216 215 220 234 270 293 309 321 327 329 330 332 331 328 321 316 312 317 322 323 323 322 323 322 322 323 323 323 320 316 319 320 322 321 322 312 311 310
235 232 229 224 217 219 231 245 263 283 299 307 312 317 320 322 323 320 314 313 321 324 325 324 325 325 326 325 325 326 326 325 324 319 321 322 323 323 323 323 319 311 307
242 237 232 230 231 236 250 262 275 285 292 295 304 314 315 311 308 310 319 323 325 323 323 323 322 323 324 324 324 324 325 325 324 323 323 323 323 323 323 323 319 315 313
247 241 240 242 246 251 258 265 274 280 287 299 305 301 298 301 309 315 319 320 320 319 319 319 321 322 321 321 321 323 324 325 323 321 321 321 321 320 321 320 319 318 308
248 244 246 249 253 258 264 267 270 275 285 290 291 290 295 302 306 312 314 315 315 316 318 319 320 320 322 323 323 321 321 322 322 322 321 320 320 320 320 317 319 315 312
256 254 252 252 256 260 264 268 271 274 275 276 278 282 289 297 305 310 312 314 316 318 318 318 319 320 322 322 322 321 322 323 323 322 322 320 320 319 318 317 316 318 317
257 257 259 261 262 263 264 265 267 269 270 272 276 282 288 298 306 311 315 318 319 319 319 319 321 322 323 324 324 323 322 322 321 321 321 319 319 318 316 317 318 317 317
265 260 260 262 262 262 262 263 265 266 268 272 276 283 293 304 309 311 313 315 316 317 318 320 322 324 324 322 321 321 321 322 322 322 321 320 319 317 316 316 317 317 317
263 260 260 261 260 258 259 260 263 264 266 268 275 285 295 302 304 307 309 310 312 315 317 318 320 320 320 321 323 324 325 326 325 324 321 320 318 316 314 314 316 316 317
259 257 257 256 254 254 255 257 257 256 255 262 275 287 296 299 303 306 308 310 313 316 317 317 317 319 321 323 325 326 325 327 327 326 325 322 318 315 313 311 312 316 315
257 256 254 252 252 253 252 250 245 243 246 264 277 286 292 298 303 306 309 312 315 317 318 318 320 323 325 327 328 330 329 328 325 322 319 319 317 315 313 313 312 313 314
258 253 249 246 244 242 240 237 237 243 264 275 285 291 297 302 306 310 312 314 317 319 321 322 323 322 321 322 324 323 322 325 324 322 319 318 319 321 317 314 311 308 304
250 241 235 233 231 230 229 229 239 259 272 283 290 297 304 309 311 314 317 319 320 322 323 323 322 321 318 322 322 316 317 328 328 324 321 321 320 318 313 305 305 308 307